Date String (YYYY-MM-DD hh:mm:ss) UTC,Instrument flags,absolute air pressure of the measurement (hPa),sample flow rate (lpm),inlet stack bypass flow (lpm),air temperature of the measurement (°C),ambient temperature measured by the external sensor (°C),aerosol sample conditioner tube jacket temperature (°C),OPC LED temperature (°C),internal box temperature (°C),relative humidity of the measurement (%),span deviation,mass concentration of particles derived from Lorenz-Mie calculation of OPC scattering (μg/m³),mass concentration of particles derived from Lorenz-Mie calculation of OPC scattering (μg/m³),mass concentration of particles derived from Lorenz-Mie calculation of OPC scattering (μg/m³)
DateTimeUTC,F1_M11,P_M11,Q1_M11,Q2_M11,T1_M11,T2_M11,T3_M11,T4_M11,T5_M11,U1_M11,ZSPAN_M11,X0_M11,X2_M11,X1_M11
2023-06-05 13:00:00,SystemResetWarning,0835.2,5.00,000.00,030.4,028.8,000.0,038.8,031.9,27.1,0000.0,0003.45,0002.82,0002.49
2023-06-05 13:01:00,SystemResetWarning,0835.2,5.00,000.00,030.4,028.8,000.0,038.8,031.9,27.3,0000.0,0003.28,0002.74,0002.45
2023-06-05 13:02:00,SystemResetWarning,0835.2,5.00,000.00,030.4,028.8,000.0,038.8,031.9,27.5,0000.0,0003.60,0002.71,0002.44
2023-06-05 13:03:00,SystemResetWarning,0835.2,5.00,000.00,030.4,028.7,000.0,038.8,031.9,27.7,0000.0,0003.89,0002.76,0002.46
2023-06-05 13:04:00,SystemResetWarning,0835.2,5.00,000.00,030.4,028.7,000.0,038.8,031.9,27.8,0000.0,0004.06,0002.80,0002.48
2023-06-05 13:05:00,SystemResetWarning,0835.2,5.00,000.00,030.4,028.7,000.0,038.8,031.9,27.9,0000.0,0004.24,0002.89,0002.49
2023-06-05 13:06:00,SystemResetWarning,0835.2,5.00,000.00,030.4,028.7,000.0,038.8,031.9,28.0,0000.0,0004.26,0002.90,0002.51
2023-06-05 13:07:00,SystemResetWarning,0835.2,5.00,000.00,030.4,028.7,000.0,038.8,031.9,28.0,0000.0,0004.13,0002.88,0002.53
2023-06-05 13:08:00,SystemResetWarning,0835.2,5.00,000.00,030.4,028.7,000.0,038.8,031.9,28.0,0000.0,0004.15,0002.91,0002.55
2023-06-05 13:09:00,SystemResetWarning,0835.2,5.00,000.00,030.3,028.7,000.0,038.8,031.9,28.1,0000.0,0004.22,0002.95,0002.58
2023-06-05 13:10:00,SystemResetWarning,0835.2,5.00,000.00,030.3,028.7,000.0,038.8,031.9,28.1,0000.0,0004.20,0002.98,0002.60
2023-06-05 13:11:00,SystemResetWarning,0835.3,5.00,000.00,030.3,028.7,000.0,038.8,031.9,28.2,0000.0,0004.35,0003.06,0002.63
2023-06-05 13:12:00,SystemResetWarning,0835.3,5.00,000.00,030.3,028.7,000.0,038.8,031.9,28.2,0000.0,0004.47,0003.11,0002.65
2023-06-05 13:13:00,SystemResetWarning,0835.3,5.00,000.00,030.3,028.7,000.0,038.8,031.9,28.3,0000.0,0004.41,0003.16,0002.69
2023-06-05 13:14:00,SystemResetWarning,0835.3,5.00,000.00,030.3,028.7,000.0,038.8,031.9,28.4,0000.0,0004.31,0003.16,0002.72
2023-06-05 13:15:00,SystemResetWarning,0835.3,5.00,000.00,030.3,028.7,000.0,038.8,031.9,28.6,0000.0,0004.41,0003.17,0002.75
2023-06-05 13:16:00,SystemResetWarning,0835.3,5.00,000.00,030.3,028.7,000.0,038.8,031.9,28.7,0000.0,0004.19,0003.13,0002.76
2023-06-05 13:17:00,SystemResetWarning,0835.3,5.00,000.00,030.3,028.7,000.0,038.7,031.9,28.8,0000.0,0004.16,0003.13,0002.77
2023-06-05 13:18:00,SystemResetWarning,0835.3,5.01,000.00,030.3,028.7,000.0,038.7,031.9,28.9,0000.0,0004.21,0003.14,0002.79
2023-06-05 13:19:00,SystemResetWarning,0835.3,5.00,000.00,030.3,028.7,000.0,038.7,031.9,29.1,0000.0,0004.26,0003.15,0002.80
2023-06-05 13:20:00,SystemResetWarning,0835.3,5.00,000.00,030.3,028.7,000.0,038.7,031.9,29.4,0000.0,0004.28,0003.17,0002.82
2023-06-05 13:21:00,SystemResetWarning,0835.3,5.00,000.00,030.3,028.7,000.0,038.7,031.9,29.5,0000.0,0004.23,0003.16,0002.82
2023-06-05 13:22:00,SystemResetWarning,0835.3,5.00,000.00,030.3,028.7,000.0,038.7,031.9,29.7,0000.0,0004.16,0003.15,0002.83
2023-06-05 13:23:00,SystemResetWarning,0835.3,5.00,000.00,030.3,028.7,000.0,038.7,031.9,29.6,0000.0,0004.20,0003.16,0002.87
2023-06-05 13:24:00,SystemResetWarning,0835.3,5.00,000.00,030.3,028.7,000.0,038.7,031.9,29.7,0000.0,0004.07,0003.14,0002.89
2023-06-05 13:25:00,SystemResetWarning,0835.3,5.00,000.00,030.3,028.7,000.0,038.7,031.9,29.6,0000.0,0003.85,0003.14,0002.92
2023-06-05 13:26:00,SystemResetWarning,0835.3,5.00,000.00,030.3,028.7,000.0,038.7,031.9,29.6,0000.0,0003.81,0003.16,0002.94
2023-06-05 13:27:00,SystemResetWarning,0835.3,5.00,000.00,030.3,028.7,000.0,038.7,031.9,29.6,0000.0,0003.91,0003.19,0002.98
2023-06-05 13:28:00,SystemResetWarning,0835.3,5.00,000.00,030.3,028.7,000.0,038.7,031.9,30.7,0000.0,0003.98,0003.20,0003.01
2023-06-05 13:29:00,SystemResetWarning,0835.3,4.99,000.00,030.3,028.7,000.0,038.7,031.9,30.3,0000.0,0003.99,0003.21,0003.02
2023-06-05 13:30:00,SystemResetWarning,0835.2,5.00,000.00,030.3,028.7,000.0,038.7,031.9,30.4,0000.0,0004.02,0003.24,0003.06
2023-06-05 13:31:00,SystemResetWarning,0835.2,5.01,000.00,030.3,028.7,000.0,038.7,031.9,30.1,0000.0,0004.04,0003.25,0003.09
2023-06-05 13:32:00,SystemResetWarning,0835.3,5.01,000.00,030.4,028.8,000.0,038.7,031.9,29.7,0000.0,0004.18,0003.28,0003.11
2023-06-05 13:33:00,SystemResetWarning,0835.5,5.00,000.00,030.4,028.8,000.0,038.7,031.9,29.5,0000.0,0005.23,0003.29,0003.11
2023-06-05 13:34:00,SystemResetWarning,0835.3,5.00,000.00,030.4,028.8,000.0,038.7,031.9,28.7,0000.0,0005.61,0003.28,0003.10
2023-06-05 13:35:00,SystemResetWarning,0835.4,5.00,000.00,030.4,028.8,000.0,038.7,031.9,28.3,0000.0,0005.62,0003.26,0003.06
2023-06-05 13:36:00,SystemResetWarning,0835.4,5.00,000.00,030.4,028.8,000.0,038.8,032.0,28.6,0000.0,0005.70,0003.24,0003.02
2023-06-05 13:37:00,SystemResetWarning,0835.5,5.00,000.00,030.4,028.8,000.0,038.8,032.0,28.4,0000.0,0005.73,0003.25,0002.99
2023-06-05 13:38:00,SystemResetWarning,0835.5,5.00,000.00,030.4,028.8,000.0,038.8,032.0,28.3,0000.0,0005.70,0003.24,0002.96
2023-06-05 13:39:00,SystemResetWarning,0835.5,4.99,000.00,030.4,028.9,000.0,038.8,032.0,28.1,0000.0,0005.70,0003.24,0002.93
2023-06-05 13:40:00,SystemResetWarning,0835.5,5.00,000.00,030.4,028.9,000.0,038.8,032.0,27.9,0000.0,0005.77,0003.24,0002.90
2023-06-05 13:41:00,SystemResetWarning,0835.5,5.02,000.00,030.4,028.9,000.0,038.8,032.0,28.2,0000.0,0005.74,0003.21,0002.85
2023-06-05 13:42:00,SystemResetWarning,0835.5,5.00,000.00,030.4,028.9,000.0,038.8,032.0,27.8,0000.0,0005.79,0003.19,0002.79
2023-06-05 13:43:00,SystemResetWarning,0835.5,5.00,000.00,030.4,028.9,000.0,038.8,032.0,29.1,0000.0,0005.61,0003.15,0002.75
2023-06-05 13:44:00,SystemResetWarning,0835.5,4.98,000.00,030.4,028.9,000.0,038.8,032.0,29.6,0000.0,0004.57,0003.12,0002.73
2023-06-05 13:45:00,SystemResetWarning,0835.5,5.00,000.00,030.5,028.9,000.0,038.8,032.0,29.7,0000.0,0004.08,0003.11,0002.73
2023-06-05 13:46:00,SystemResetWarning,0835.5,5.01,000.00,030.5,028.9,000.0,038.8,032.0,29.3,0000.0,0004.18,0003.13,0002.75
2023-06-05 13:47:00,SystemResetWarning,0835.5,5.01,000.00,030.5,028.9,000.0,038.8,032.0,29.2,0000.0,0003.98,0003.12,0002.76
2023-06-05 13:48:00,SystemResetWarning,0835.5,4.98,000.00,030.5,028.9,000.0,038.8,032.0,29.4,0000.0,0003.86,0003.11,0002.79
2023-06-05 13:49:00,SystemResetWarning,0835.5,5.01,000.00,030.5,028.9,000.0,038.8,032.0,29.5,0000.0,0003.95,0003.15,0002.85
2023-06-05 13:50:00,SystemResetWarning,0835.5,5.01,000.00,030.5,028.9,000.0,038.8,032.0,29.8,0000.0,0003.95,0003.17,0002.91
2023-06-05 13:51:00,SystemResetWarning,0835.5,5.01,000.00,030.5,028.9,000.0,038.8,032.0,29.9,0000.0,0003.90,0003.19,0002.99
2023-06-05 13:52:00,SystemResetWarning,0835.5,5.00,000.00,030.5,028.9,000.0,038.8,032.0,30.1,0000.0,0004.00,0003.25,0003.09
2023-06-05 13:53:00,SystemResetWarning,0835.5,5.00,000.00,030.5,028.9,000.0,038.8,032.1,30.1,0000.0,0004.12,0003.33,0003.17
2023-06-05 13:54:00,SystemResetWarning,0835.5,4.99,000.00,030.5,028.9,000.0,038.8,032.0,29.9,0000.0,0004.36,0003.43,0003.25
2023-06-05 13:55:00,SystemResetWarning,0835.5,5.00,000.00,030.5,028.9,000.0,038.8,032.0,30.0,0000.0,0004.66,0003.54,0003.33
2023-06-05 13:56:00,SystemResetWarning,0835.5,5.01,000.00,030.5,028.9,000.0,038.8,032.0,29.8,0000.0,0004.82,0003.63,0003.41
2023-06-05 13:57:00,SystemResetWarning,0835.5,5.01,000.00,030.5,028.9,000.0,038.8,032.0,29.9,0000.0,0004.84,0003.72,0003.51
2023-06-05 13:58:00,SystemResetWarning,0835.5,5.00,000.00,030.5,028.9,000.0,038.8,032.0,30.0,0000.0,0005.08,0003.83,0003.61
2023-06-05 13:59:00,SystemResetWarning,0835.5,4.99,000.00,030.5,028.9,000.0,038.8,032.0,30.4,0000.0,0005.46,0003.97,0003.73
